Location: Township of Marena
(38.1747°N, 99.6798°W)
Time: 13:52:25
(UTC+00:00)

BREEZE-M TANK - Pass Details

Date: 26 October 2020
Orbit: 550 x 24736 km, 45.2° (Epoch: 28 November)

Event Time Altitude Azimuth Distance (km) Brightness Sun altitude
Rises 02:16:39 0° 294° (WNW) 4,356 8.0 -30.0°
Reaches altitude 10° 02:20:21 10° 299° (WNW) 2,498 6.4 -30.7°
Enters shadow 02:23:06 29° 315° (NW) 1,161 4.3 -31.3°
